CDT,Max TemperatureF,Mean TemperatureF,Min TemperatureF,Max Dew PointF,MeanDew PointF,Min DewpointF,Max Humidity, Mean Humidity, Min Humidity, Max Sea Level PressureIn, Mean Sea Level PressureIn, Min Sea Level PressureIn, Max VisibilityMiles, Mean VisibilityMiles, Min VisibilityMiles, Max Wind SpeedMPH, Mean Wind SpeedMPH, Max Gust SpeedMPH,PrecipitationIn, CloudCover, Events, WindDirDegrees
2013-5-1,84,73,62,69,65,62,100,82,51,29.91,29.85,29.82,10,9,5,7,1,,0.00,4,,120
2013-5-2,75,62,48,64,58,42,97,82,68,30.21,30.04,29.91,10,10,10,23,8,34,0.00,7,,345
2013-5-3,66,54,41,40,34,27,89,55,23,30.21,30.15,30.07,10,10,10,22,15,34,0.00,2,,335
2013-5-4,81,58,36,46,37,32,97,56,18,30.07,29.97,29.86,10,10,10,17,4,25,0.00,0,,252
2013-5-5,71,56,41,47,42,39,96,66,34,30.12,30.05,29.98,10,10,10,14,4,22,0.00,0,,339
2013-5-6,78,58,41,58,48,40,97,71,38,30.12,30.06,29.99,10,10,10,12,2,,0.00,0,,311
2013-5-7,84,67,50,58,53,49,97,64,32,30.08,30.02,29.96,10,10,10,8,1,,0.00,0,,178
2013-5-8,84,70,55,63,60,55,97,74,40,30.07,30.01,29.96,10,10,10,15,6,21,0.00,2,,154
2013-5-9,77,70,64,70,67,63,100,88,76,30.01,29.95,29.87,10,9,2,15,6,23,0.22,8,Rain-Thunderstorm,135
2013-5-10,75,70,66,70,66,64,100,91,69,30.06,29.94,29.74,10,8,2,18,5,23,0.28,5,Rain-Thunderstorm,190
2013-5-11,82,72,61,67,63,55,100,82,42,30.11,30.01,29.93,10,8,1,13,5,20,0.02,3,Rain,337
2013-5-12,81,66,54,57,55,51,97,70,42,30.20,30.15,30.10,10,10,9,9,3,,0.00,0,,5
2013-5-13,82,64,46,56,49,41,97,67,26,30.30,30.23,30.18,10,10,10,9,2,,0.01,0,,145
2013-5-14,84,68,51,64,59,50,100,79,35,30.24,30.18,30.08,10,8,0,14,4,23,0.00,3,Fog,165
2013-5-15,77,70,64,70,67,63,100,89,71,30.15,30.06,29.91,10,8,2,16,7,21,0.26,6,Rain,142
2013-5-16,86,74,64,70,67,63,93,77,57,29.98,29.88,29.80,10,10,9,21,12,25,0.02,6,,155
2013-5-17,91,80,70,72,70,69,97,77,53,29.96,29.90,29.85,10,8,3,16,9,23,0.00,4,,160
2013-5-18,91,82,73,72,70,68,94,75,47,29.96,29.92,29.88,10,8,5,16,11,23,0.00,4,,158
2013-5-19,91,82,73,71,69,66,88,73,46,29.92,29.87,29.81,10,10,10,18,12,26,0.00,4,,152
2013-5-20,90,80,71,72,71,69,94,77,57,29.90,29.85,29.77,10,9,4,17,11,26,0.00,7,,145
2013-5-21,91,82,75,73,71,66,94,77,52,29.87,29.82,29.71,10,10,7,21,9,29,0.00,6,Thunderstorm,147
2013-5-22,86,76,68,74,69,66,100,89,70,29.94,29.87,29.82,10,7,1,13,5,23,1.47,7,Rain-Thunderstorm,44
2013-5-23,88,78,69,74,71,68,100,90,59,30.06,29.96,29.92,10,5,0,14,2,20,0.00,5,Fog,133
2013-5-24,88,79,71,76,72,69,100,88,55,30.15,30.08,30.02,10,6,0,13,2,17,0.08,5,Fog-Rain-Thunderstorm,128
2013-5-25,82,76,70,73,70,67,100,86,60,30.17,30.12,30.06,10,8,5,10,3,16,0.00,2,,128
2013-5-26,88,79,71,73,70,67,100,82,51,30.12,30.08,30.00,10,7,2,15,4,22,0.00,2,Rain,138
2013-5-27,90,78,66,71,68,66,100,77,48,30.05,30.00,29.91,10,8,2,17,6,24,0.01,2,,145
2013-5-28,90,80,71,70,69,65,94,77,46,29.96,29.91,29.87,10,10,10,17,10,24,0.00,3,,145
2013-5-29,84,78,71,73,71,70,94,83,65,29.90,29.87,29.81,10,10,9,18,7,25,0.00,5,,139
2013-5-30,89,82,75,74,72,70,91,78,61,29.90,29.85,29.80,10,10,10,21,11,26,0.00,5,,149
2013-5-31,93,84,77,75,73,71,90,78,52,29.92,29.87,29.81,10,10,10,17,10,22,0.00,6,,160